AirNav   Everest Fuels
 
 1618 users online  

NV33 Farias Wheel Airport
Smith Valley, Nevada, USA

GOING TO SMITH VALLEY?


FAA INFORMATION EFFECTIVE 09 SEPTEMBER 2021

Location

FAA Identifier: NV33
Lat/Long: 38-49-59.6800N 119-23-45.5810W
38-49.994667N 119-23.759683W
38.8332444,-119.3959947
(estimated)
Elevation: 4848 ft. / 1477.7 m (surveyed)
Variation: 16E (1985)
From city: 6 miles E of SMITH VALLEY, NV
Time zone: UTC -7 (UTC -8 during Standard Time)
Zip code: 89444

Airport Operations

Airport use: Private use. Permission required prior to landing
Activation date: 10/1965
Control tower: no
ARTCC: OAKLAND CENTER
FSS: RENO FLIGHT SERVICE STATION
Attendance: UNATNDD
FOR SVC CALL (775) 465-2383.
Wind indicator: lighted
Segmented circle: no
Lights: ACTVT MIRL RWY 16/34 - 122.9.
Beacon: white-green (lighted land airport)
ACTVT ROTG BCN - 122.9.

Airport Communications

WX AWOS-3PT at MEV (19 nm NW): 119.325 (775-782-6264)

Airport Services

Parking: tiedowns
Airframe service: NONE
Powerplant service: NONE
Bottled oxygen: NONE
Bulk oxygen: NONE

Runway Information

Runway 16/34

Dimensions: 3391 x 22 ft. / 1034 x 7 m
22 FT WIDE ASPHALT CENTER ON 100 FT WIDE DIRT RY.
Surface: asphalt, in good condition
Runway edge lights: non-standard
NSTD MIRL DO NOT RUN FULL LENGTH OF RY EITHER SIDE. RY 16 MIRL ON LEFT SIDE ONLY EXTEND FIRST 2/3 OF RY. RY 34 MIRL ON LEFT SIDE ONLY EXTEND FIRST 2/3 OF RY.
RUNWAY 16  RUNWAY 34
Traffic pattern: leftright
Markings: nonenone
Obstructions: 30 ft. tree, 350 ft. from runway
ROAD CROSSES DIAGONALLY 120 FT FM RY 16 THLD.
40 ft. tree, 200 ft. from runway
ROAD CROSSES DIAGONALLY 100 FT FM RY 34 THLD.

Airport Ownership and Management from official FAA records

Ownership: Privately-owned
Owner: VALLEY VIEW AIRPORT LLC
PO BOX 347
WELLINGTON, NV 89444-0347
Phone (775) 465-2385
Manager: JAMES KINNINGER
87 PINON DRIVE
WELLINGTON, NV 89444
Phone (775) 465-2383
EMAIL: JAMESKINNINGER6@GMAIL.COM

Airport Operational Statistics

Aircraft based on the field: 16
Single engine airplanes: 15
Multi engine airplanes: 1
    
Aircraft operations: avg 29/week *
78% local general aviation
20% transient general aviation
2% air taxi
* for 12-month period ending 05 July 2006

Additional Remarks

FOR CD CTC OAKLAND ARTCC AT 510-745-3380.

Instrument Procedures

There are no published instrument procedures at NV33.

Some nearby airports with instrument procedures:

KMEV - Minden-Tahoe Airport (19 nm NW)
KCXP - Carson City Airport (27 nm NW)
KTVL - Lake Tahoe Airport (28 nm W)
KSPZ - Silver Springs Airport (35 nm N)
KHTH - Hawthorne Industrial Airport (40 nm SE)
 
Loc | Ops | Rwys | IFR | FBO | Links
Com | Nav | Svcs | Stats | Notes
Area around NV33 (Farias Wheel Airport)
 
Road maps at: MapQuest Bing Google
 
Aerial photo
WARNING: Photo may not be current or correct
Aerial photo of NV33 (Farias Wheel Airport)
Photo taken 14-Jul-2007

Do you have a better or more recent aerial photo of Farias Wheel Airport that you would like to share? If so, please send us your photo.

 
Sectional chart

 
Airport distance calculator
Flying to Farias Wheel Airport? Find the distance to fly.

From to NV33

Sunrise and sunset
Times for 23-Sep-2021
 Local
(UTC-7)
 Zulu
(UTC)
Morning civil twilight06:2113:21
Sunrise06:4713:47
Sunset18:5301:53
Evening civil twilight19:1902:19

Current date and time
Zulu (UTC)  23-Sep-2021 20:51:37
Local (UTC-7)  23-Sep-2021 13:51:37
 
METAR
KMEV 
19nm NW 
232035Z AUTO VRB06G13KT 9SM CLR 24/M01 A3019 RMK AO2
KCXP 
27nm NW 
232035Z AUTO 06006G16KT 10SM CLR 26/M02 A3021 RMK AO2
KTVL 
28nm W 
231953Z AUTO VRB03KT 10SM CLR 22/M01 A3026 RMK AO2 SLP199 T02171006
KBAN 
29nm S 
231952Z AUTO 06006KT 10SM 23/M03 A3026 RMK AO2 SLP158 T02281028 $
TAF
KMEV 
19nm NW 
231731Z 2318/2418 04007KT P6SM FEW250 FM231900 05010G18KT P6SM SCT250 FM240400 12005KT P6SM SKC
NOTAMs
Click for the latest NOTAMs
NOTAMs are issued by the DoD/FAA and will open in a separate window not controlled by AirNav.

 

 
 

Would you like to see your business listed on this page?

 If your business provides an interesting product or service to pilots, flight crews, aircraft, or users of the Farias Wheel Airport, you should consider listing it here.  To start the listing process, click on the button below
 
Add a business
 

Other Pages about Farias Wheel Airport

www.nv33.com
 
Update a link
 
Copyright © AirNav, LLC. All rights reserved. Privacy Policy  Contact